Year,Month,Day,Hour,Minute,Value (Times are PST for temperature in C)
2017,06,20,00,00,13.10
2017,06,20,00,01,13.10
2017,06,20,00,02,13.10
2017,06,20,00,03,13.10
2017,06,20,00,04,13.10
2017,06,20,00,05,13.20
2017,06,20,00,06,13.20
2017,06,20,00,07,13.20
2017,06,20,00,08,13.20
2017,06,20,00,09,13.20
2017,06,20,00,10,13.20
2017,06,20,00,11,13.20
2017,06,20,00,12,13.20
2017,06,20,00,13,13.20
2017,06,20,00,14,13.30
2017,06,20,00,15,13.30
2017,06,20,00,16,13.30
2017,06,20,00,17,13.30
2017,06,20,00,18,13.40
2017,06,20,00,19,13.40
2017,06,20,00,20,13.40
2017,06,20,00,21,13.40
2017,06,20,00,22,13.40
2017,06,20,00,23,13.40
2017,06,20,00,24,13.40
2017,06,20,00,25,13.40
2017,06,20,00,26,13.40
2017,06,20,00,27,13.40
2017,06,20,00,28,13.40
2017,06,20,00,29,13.40
2017,06,20,00,30,13.40
2017,06,20,00,31,13.30
2017,06,20,00,32,13.30
2017,06,20,00,33,13.30
2017,06,20,00,34,13.20
2017,06,20,00,35,13.20
2017,06,20,00,36,13.10
2017,06,20,00,37,13.10
2017,06,20,00,38,13.10
2017,06,20,00,39,13.00
2017,06,20,00,40,13.00
2017,06,20,00,41,12.90
2017,06,20,00,42,12.90
2017,06,20,00,43,12.90
2017,06,20,00,44,12.90
2017,06,20,00,45,12.90
2017,06,20,00,46,12.90
2017,06,20,00,47,12.90
2017,06,20,00,48,12.90
2017,06,20,00,49,12.90
2017,06,20,00,50,12.90
2017,06,20,00,51,12.90
2017,06,20,00,52,12.80
2017,06,20,00,53,12.80
2017,06,20,00,54,12.80
2017,06,20,00,55,12.80
2017,06,20,00,56,12.80
2017,06,20,00,57,12.80
2017,06,20,00,58,12.80
2017,06,20,00,59,12.80
2017,06,20,01,00,12.80
2017,06,20,01,01,12.80
2017,06,20,01,02,12.70
2017,06,20,01,03,12.70
2017,06,20,01,04,12.70
2017,06,20,01,05,12.70
2017,06,20,01,06,12.70
2017,06,20,01,07,12.70
2017,06,20,01,08,12.70
2017,06,20,01,09,12.70
2017,06,20,01,10,12.70
2017,06,20,01,11,12.70
2017,06,20,01,12,12.70
2017,06,20,01,13,12.70
2017,06,20,01,14,12.70
2017,06,20,01,15,12.70
2017,06,20,01,16,12.70
2017,06,20,01,17,12.70
2017,06,20,01,18,12.70
2017,06,20,01,19,12.70
2017,06,20,01,20,12.70
2017,06,20,01,21,12.70
2017,06,20,01,22,12.70
2017,06,20,01,23,12.70
2017,06,20,01,24,12.70
2017,06,20,01,25,12.70
2017,06,20,01,26,12.70
2017,06,20,01,27,12.70
2017,06,20,01,28,12.70
2017,06,20,01,29,12.70
2017,06,20,01,30,12.70
2017,06,20,01,31,12.70
2017,06,20,01,32,12.70
2017,06,20,01,33,12.70
2017,06,20,01,34,12.70
2017,06,20,01,35,12.70
2017,06,20,01,36,12.70
2017,06,20,01,37,12.70
2017,06,20,01,38,12.70
2017,06,20,01,39,12.70
2017,06,20,01,40,12.70
2017,06,20,01,41,12.70
2017,06,20,01,42,12.70
2017,06,20,01,43,12.70
2017,06,20,01,44,12.70
2017,06,20,01,45,12.70
2017,06,20,01,46,12.70
2017,06,20,01,47,12.70
2017,06,20,01,48,12.70
2017,06,20,01,49,12.70
2017,06,20,01,50,12.70
2017,06,20,01,51,12.70
2017,06,20,01,52,12.60
2017,06,20,01,53,12.60
2017,06,20,01,54,12.60
2017,06,20,01,55,12.60
2017,06,20,01,56,12.60
2017,06,20,01,57,12.60
2017,06,20,01,58,12.60
2017,06,20,01,59,12.60
2017,06,20,02,00,12.60
2017,06,20,02,01,12.60
2017,06,20,02,02,12.60
2017,06,20,02,03,12.60
2017,06,20,02,04,12.60
2017,06,20,02,05,12.60
2017,06,20,02,06,12.60
2017,06,20,02,07,12.60
2017,06,20,02,08,12.60
2017,06,20,02,09,12.60
2017,06,20,02,10,12.60
2017,06,20,02,11,12.60
2017,06,20,02,12,12.70
2017,06,20,02,13,12.70
2017,06,20,02,14,12.60
2017,06,20,02,15,12.60
2017,06,20,02,16,12.70
2017,06,20,02,17,12.70
2017,06,20,02,18,12.70
2017,06,20,02,19,12.70
2017,06,20,02,20,12.70
2017,06,20,02,21,12.70
2017,06,20,02,22,12.70
2017,06,20,02,23,12.70
2017,06,20,02,24,12.70
2017,06,20,02,25,12.70
2017,06,20,02,26,12.70
2017,06,20,02,27,12.70
2017,06,20,02,28,12.70
2017,06,20,02,29,12.60
2017,06,20,02,30,12.60
2017,06,20,02,31,12.60
2017,06,20,02,32,12.60
2017,06,20,02,33,12.60
2017,06,20,02,34,12.60
2017,06,20,02,35,12.60
2017,06,20,02,36,12.50
2017,06,20,02,37,12.50
2017,06,20,02,38,12.50
2017,06,20,02,39,12.40
2017,06,20,02,40,12.40
2017,06,20,02,41,12.40
2017,06,20,02,42,12.40
2017,06,20,02,43,12.30
2017,06,20,02,44,12.30
2017,06,20,02,45,12.30
2017,06,20,02,46,12.30
2017,06,20,02,47,12.20
2017,06,20,02,48,12.20
2017,06,20,02,49,12.20
2017,06,20,02,50,12.20
2017,06,20,02,51,12.20
2017,06,20,02,52,12.20
2017,06,20,02,53,12.20
2017,06,20,02,54,12.20
2017,06,20,02,55,12.20
2017,06,20,02,56,12.20
2017,06,20,02,57,12.20
2017,06,20,02,58,12.20
2017,06,20,02,59,12.20
2017,06,20,03,00,12.20
2017,06,20,03,01,12.20
2017,06,20,03,02,12.20
2017,06,20,03,03,12.20
2017,06,20,03,04,12.20
2017,06,20,03,05,12.20
2017,06,20,03,06,12.20
2017,06,20,03,07,12.20
2017,06,20,03,08,12.20
2017,06,20,03,09,12.20
2017,06,20,03,10,12.20
2017,06,20,03,11,12.20
2017,06,20,03,12,12.20
2017,06,20,03,13,12.20
2017,06,20,03,14,12.20
2017,06,20,03,15,12.20
2017,06,20,03,16,12.20
2017,06,20,03,17,12.20
2017,06,20,03,18,12.30
2017,06,20,03,19,12.30
2017,06,20,03,20,12.30
2017,06,20,03,21,12.30
2017,06,20,03,22,12.20
2017,06,20,03,23,12.20
2017,06,20,03,24,12.20
2017,06,20,03,25,12.20
2017,06,20,03,26,12.20
2017,06,20,03,27,12.20
2017,06,20,03,28,12.20
2017,06,20,03,29,12.20
2017,06,20,03,30,12.20
2017,06,20,03,31,12.20
2017,06,20,03,32,12.20
2017,06,20,03,33,12.20
2017,06,20,03,34,12.20
2017,06,20,03,35,12.20
2017,06,20,03,36,12.20
2017,06,20,03,37,12.20
2017,06,20,03,38,12.20
2017,06,20,03,39,12.30
2017,06,20,03,40,12.30
2017,06,20,03,41,12.30
2017,06,20,03,42,12.30
2017,06,20,03,43,12.30
2017,06,20,03,44,12.30
2017,06,20,03,45,12.30
2017,06,20,03,46,12.30
2017,06,20,03,47,12.30
2017,06,20,03,48,12.30
2017,06,20,03,49,12.30
2017,06,20,03,50,12.30
2017,06,20,03,51,12.20
2017,06,20,03,52,12.20
2017,06,20,03,53,12.20
2017,06,20,03,54,12.10
2017,06,20,03,55,12.10
2017,06,20,03,56,12.10
2017,06,20,03,57,12.10
2017,06,20,03,58,12.10
2017,06,20,03,59,12.10
2017,06,20,04,00,12.00
2017,06,20,04,01,12.10
2017,06,20,04,02,12.10
2017,06,20,04,03,12.10
2017,06,20,04,04,12.10
2017,06,20,04,05,12.10
2017,06,20,04,06,12.10
2017,06,20,04,07,12.10
2017,06,20,04,08,12.10
2017,06,20,04,09,12.10
2017,06,20,04,10,12.20
2017,06,20,04,11,12.20
2017,06,20,04,12,12.20
2017,06,20,04,13,12.20
2017,06,20,04,14,12.20
2017,06,20,04,15,12.20
2017,06,20,04,16,12.30
2017,06,20,04,17,12.30
2017,06,20,04,18,12.30
2017,06,20,04,19,12.30
2017,06,20,04,20,12.30
2017,06,20,04,21,12.30
2017,06,20,04,22,12.30
2017,06,20,04,23,12.30
2017,06,20,04,24,12.30
2017,06,20,04,25,12.30
2017,06,20,04,26,12.40
2017,06,20,04,27,12.40
2017,06,20,04,28,12.40
2017,06,20,04,29,12.40
2017,06,20,04,30,12.40
2017,06,20,04,31,12.40
2017,06,20,04,32,12.40
2017,06,20,04,33,12.50
2017,06,20,04,34,12.50
2017,06,20,04,35,12.50
2017,06,20,04,36,12.50
2017,06,20,04,37,12.50
2017,06,20,04,38,12.60
2017,06,20,04,39,12.60
2017,06,20,04,40,12.60
2017,06,20,04,41,12.60
2017,06,20,04,42,12.60
2017,06,20,04,43,12.60
2017,06,20,04,44,12.60
2017,06,20,04,45,12.70
2017,06,20,04,46,12.70
2017,06,20,04,47,12.70
2017,06,20,04,48,12.70
2017,06,20,04,49,12.70
2017,06,20,04,50,12.80
2017,06,20,04,51,12.80
2017,06,20,04,52,12.80
2017,06,20,04,53,12.80
2017,06,20,04,54,12.80
2017,06,20,04,55,12.80
2017,06,20,04,56,12.90
2017,06,20,04,57,12.90
2017,06,20,04,58,12.90
2017,06,20,04,59,12.90
2017,06,20,05,00,12.90
2017,06,20,05,01,13.00
2017,06,20,05,02,13.00
2017,06,20,05,03,13.00
2017,06,20,05,04,13.00
2017,06,20,05,05,13.00
2017,06,20,05,06,13.10
2017,06,20,05,07,13.10
2017,06,20,05,08,13.10
2017,06,20,05,09,13.10
2017,06,20,05,10,13.00
2017,06,20,05,11,13.00
2017,06,20,05,12,12.90
2017,06,20,05,13,12.90
2017,06,20,05,14,12.80
2017,06,20,05,15,12.80
2017,06,20,05,16,12.70
2017,06,20,05,17,12.70
2017,06,20,05,18,12.70
2017,06,20,05,19,12.70
2017,06,20,05,20,12.70
2017,06,20,05,21,12.60
2017,06,20,05,22,12.60
2017,06,20,05,23,12.60
2017,06,20,05,24,12.60
2017,06,20,05,25,12.60
2017,06,20,05,26,12.60
2017,06,20,05,27,12.60
2017,06,20,05,28,12.60
2017,06,20,05,29,12.80
2017,06,20,05,30,12.80
2017,06,20,05,31,12.90
2017,06,20,05,32,12.90
2017,06,20,05,33,12.90
2017,06,20,05,34,12.90
2017,06,20,05,35,12.90
2017,06,20,05,36,12.90
2017,06,20,05,37,12.90
2017,06,20,05,38,12.80
2017,06,20,05,39,12.80
2017,06,20,05,40,12.80
2017,06,20,05,41,12.80
2017,06,20,05,42,12.80
2017,06,20,05,43,12.80
2017,06,20,05,44,12.80
2017,06,20,05,45,12.80
2017,06,20,05,46,12.80
2017,06,20,05,47,12.80
2017,06,20,05,48,12.80
2017,06,20,05,49,12.80
2017,06,20,05,50,12.80
2017,06,20,05,51,12.80
2017,06,20,05,52,12.80
2017,06,20,05,53,12.80
2017,06,20,05,54,12.80
2017,06,20,05,55,12.80
2017,06,20,05,56,12.80
2017,06,20,05,57,12.90
2017,06,20,05,58,12.90
2017,06,20,05,59,12.90
2017,06,20,06,00,12.90
2017,06,20,06,01,12.90
2017,06,20,06,02,12.90
2017,06,20,06,03,12.90
2017,06,20,06,04,12.90
2017,06,20,06,05,13.00
2017,06,20,06,06,13.00
2017,06,20,06,07,13.00
2017,06,20,06,08,13.00
2017,06,20,06,09,13.10
2017,06,20,06,10,13.10
2017,06,20,06,11,13.10
2017,06,20,06,12,13.10
2017,06,20,06,13,13.10
2017,06,20,06,14,13.10
2017,06,20,06,15,13.20
2017,06,20,06,16,13.20
2017,06,20,06,17,13.20
2017,06,20,06,18,13.20
2017,06,20,06,19,13.30
2017,06,20,06,20,13.30
2017,06,20,06,21,13.30
2017,06,20,06,22,13.30
2017,06,20,06,23,13.30
2017,06,20,06,24,13.30
2017,06,20,06,25,13.40
2017,06,20,06,26,13.40
2017,06,20,06,27,13.40
2017,06,20,06,28,13.40
2017,06,20,06,29,13.40
2017,06,20,06,30,13.50
2017,06,20,06,31,13.50
2017,06,20,06,32,13.60
2017,06,20,06,33,13.60
2017,06,20,06,34,13.70
2017,06,20,06,35,13.70
2017,06,20,06,36,13.70
2017,06,20,06,37,13.70
2017,06,20,06,38,13.80
2017,06,20,06,39,13.80
2017,06,20,06,40,13.80
2017,06,20,06,41,13.90
2017,06,20,06,42,13.90
2017,06,20,06,43,13.90
2017,06,20,06,44,13.80
2017,06,20,06,45,13.70
2017,06,20,06,46,13.60
2017,06,20,06,47,13.50
2017,06,20,06,48,13.40
2017,06,20,06,49,13.40
2017,06,20,06,50,13.30
2017,06,20,06,51,13.30
2017,06,20,06,52,13.30
2017,06,20,06,53,13.30
2017,06,20,06,54,13.40
2017,06,20,06,55,13.40
2017,06,20,06,56,13.40
2017,06,20,06,57,13.40
2017,06,20,06,58,13.40
2017,06,20,06,59,13.50
2017,06,20,07,00,13.50
2017,06,20,07,01,13.60
2017,06,20,07,02,13.70
2017,06,20,07,03,13.70
2017,06,20,07,04,13.80
2017,06,20,07,05,13.80
2017,06,20,07,06,13.90
2017,06,20,07,07,14.00
2017,06,20,07,08,14.00
2017,06,20,07,09,14.10
2017,06,20,07,10,14.20
2017,06,20,07,11,14.20
2017,06,20,07,12,14.30
2017,06,20,07,13,14.30
2017,06,20,07,14,14.30
2017,06,20,07,15,14.30
2017,06,20,07,16,14.40
2017,06,20,07,17,14.40
2017,06,20,07,18,14.40
2017,06,20,07,19,14.50
2017,06,20,07,20,14.50
2017,06,20,07,21,14.60
2017,06,20,07,22,14.60
2017,06,20,07,23,14.60
2017,06,20,07,24,14.70
2017,06,20,07,25,14.70
2017,06,20,07,26,14.80
2017,06,20,07,27,14.90
2017,06,20,07,28,14.90
2017,06,20,07,29,15.00
2017,06,20,07,30,15.10
2017,06,20,07,31,15.20
2017,06,20,07,32,15.20
2017,06,20,07,33,15.30
2017,06,20,07,34,15.30
2017,06,20,07,35,15.20
2017,06,20,07,36,15.10
2017,06,20,07,37,15.10
2017,06,20,07,38,15.00
2017,06,20,07,39,15.00
2017,06,20,07,40,14.90
2017,06,20,07,41,14.90
2017,06,20,07,42,14.90
2017,06,20,07,43,14.90
2017,06,20,07,44,14.90
2017,06,20,07,45,14.90
2017,06,20,07,46,15.00
2017,06,20,07,47,15.00
2017,06,20,07,48,15.00
2017,06,20,07,49,15.00
2017,06,20,07,50,15.00
2017,06,20,07,51,15.00
2017,06,20,07,52,15.00
2017,06,20,07,53,15.10
2017,06,20,07,54,15.10
2017,06,20,07,55,15.10
2017,06,20,07,56,15.10
2017,06,20,07,57,15.10
2017,06,20,07,58,15.10
2017,06,20,07,59,15.10
2017,06,20,08,00,15.10
2017,06,20,08,01,15.10
2017,06,20,08,02,15.10
2017,06,20,08,03,15.10
2017,06,20,08,04,15.10
2017,06,20,08,05,15.10
2017,06,20,08,06,15.00
2017,06,20,08,07,15.00
2017,06,20,08,08,15.00
2017,06,20,08,09,15.00
2017,06,20,08,10,15.00
2017,06,20,08,11,15.00
2017,06,20,08,12,14.90
2017,06,20,08,13,14.90
2017,06,20,08,14,14.90
2017,06,20,08,15,14.90
2017,06,20,08,16,14.90
2017,06,20,08,17,14.90
2017,06,20,08,18,14.90
2017,06,20,08,19,14.90
2017,06,20,08,20,14.90
2017,06,20,08,21,14.90
2017,06,20,08,22,14.80
2017,06,20,08,23,14.80
2017,06,20,08,24,14.70
2017,06,20,08,25,14.70
2017,06,20,08,26,14.70
2017,06,20,08,27,14.70
2017,06,20,08,28,14.60
2017,06,20,08,29,14.60
2017,06,20,08,30,14.60
2017,06,20,08,31,14.60
2017,06,20,08,32,14.50
2017,06,20,08,33,14.50
2017,06,20,08,34,14.40
2017,06,20,08,35,14.40
2017,06,20,08,36,14.40
2017,06,20,08,37,14.50
2017,06,20,08,38,14.50
2017,06,20,08,39,14.50
2017,06,20,08,40,14.60
2017,06,20,08,41,14.60
2017,06,20,08,42,14.60
2017,06,20,08,43,14.60
2017,06,20,08,44,14.60
2017,06,20,08,45,14.60
2017,06,20,08,46,14.70
2017,06,20,08,47,14.70
2017,06,20,08,48,14.70
2017,06,20,08,49,14.70
2017,06,20,08,50,14.70
2017,06,20,08,51,14.80
2017,06,20,08,52,14.80
2017,06,20,08,53,14.90
2017,06,20,08,54,14.90
2017,06,20,08,55,15.00
2017,06,20,08,56,15.10
2017,06,20,08,57,15.20
2017,06,20,08,58,15.30
2017,06,20,08,59,15.40
2017,06,20,09,00,15.50
2017,06,20,09,01,15.60
2017,06,20,09,02,15.70
2017,06,20,09,03,15.90
2017,06,20,09,04,16.00
2017,06,20,09,05,16.10
2017,06,20,09,06,16.30
2017,06,20,09,07,16.40
2017,06,20,09,08,16.50
2017,06,20,09,09,16.60
2017,06,20,09,10,16.70
2017,06,20,09,11,16.80
2017,06,20,09,12,16.90
2017,06,20,09,13,17.10
2017,06,20,09,14,17.20
2017,06,20,09,15,17.40
2017,06,20,09,16,17.60
2017,06,20,09,17,17.80
2017,06,20,09,18,18.10
2017,06,20,09,19,18.40
2017,06,20,09,20,18.70
2017,06,20,09,21,19.00
2017,06,20,09,22,19.30
2017,06,20,09,23,19.50
2017,06,20,09,24,19.80
2017,06,20,09,25,19.90
2017,06,20,09,26,20.00
2017,06,20,09,27,20.20
2017,06,20,09,28,20.30
2017,06,20,09,29,20.30
2017,06,20,09,30,20.40
2017,06,20,09,31,20.50
2017,06,20,09,32,20.50
2017,06,20,09,33,20.40
2017,06,20,09,34,20.40
2017,06,20,09,35,20.40
2017,06,20,09,36,20.30
2017,06,20,09,37,20.30
2017,06,20,09,38,20.20
2017,06,20,09,39,20.20
2017,06,20,09,40,20.30
2017,06,20,09,41,20.30
2017,06,20,09,42,20.30
2017,06,20,09,43,20.20
2017,06,20,09,44,20.20
2017,06,20,09,45,20.20
2017,06,20,09,46,20.20
2017,06,20,09,47,20.10
2017,06,20,09,48,20.10
2017,06,20,09,49,20.00
2017,06,20,09,50,20.00
2017,06,20,09,51,20.00
2017,06,20,09,52,20.10
2017,06,20,09,53,20.10
2017,06,20,09,54,20.10
2017,06,20,09,55,20.10
2017,06,20,09,56,20.20
2017,06,20,09,57,20.20
2017,06,20,09,58,20.30
2017,06,20,09,59,20.30
2017,06,20,10,00,20.40
2017,06,20,10,01,20.40
2017,06,20,10,02,20.60
2017,06,20,10,03,20.70
2017,06,20,10,04,20.70
2017,06,20,10,05,20.70
2017,06,20,10,06,20.80
2017,06,20,10,07,20.80
2017,06,20,10,08,20.80
2017,06,20,10,09,20.90
2017,06,20,10,10,20.90
2017,06,20,10,11,20.90
2017,06,20,10,12,20.90
2017,06,20,10,13,21.00
2017,06,20,10,14,21.00
2017,06,20,10,15,20.90
2017,06,20,10,16,20.90
2017,06,20,10,17,20.80
2017,06,20,10,18,20.70
2017,06,20,10,19,20.70
2017,06,20,10,20,20.60
2017,06,20,10,21,20.60
2017,06,20,10,22,20.60
2017,06,20,10,23,20.60
2017,06,20,10,24,20.60
2017,06,20,10,25,20.60
2017,06,20,10,26,20.60
2017,06,20,10,27,20.60
2017,06,20,10,28,20.50
2017,06,20,10,29,20.50
2017,06,20,10,30,20.50
2017,06,20,10,31,20.50
2017,06,20,10,32,20.60
2017,06,20,10,33,20.50
2017,06,20,10,34,20.50
2017,06,20,10,35,20.40
2017,06,20,10,36,20.40
2017,06,20,10,37,20.40
2017,06,20,10,38,20.40
2017,06,20,10,39,20.50
2017,06,20,10,40,20.60
2017,06,20,10,41,20.60
2017,06,20,10,42,20.70
2017,06,20,10,43,20.70
2017,06,20,10,44,20.80
2017,06,20,10,45,20.80
2017,06,20,10,46,20.80
2017,06,20,10,47,20.90
2017,06,20,10,48,20.90
2017,06,20,10,49,20.90
2017,06,20,10,50,20.90
2017,06,20,10,51,20.90
2017,06,20,10,52,20.90
2017,06,20,10,53,20.80
2017,06,20,10,54,20.80
2017,06,20,10,55,20.80
2017,06,20,10,56,20.80
2017,06,20,10,57,20.80
2017,06,20,10,58,20.80
2017,06,20,10,59,20.80
2017,06,20,11,00,20.80
2017,06,20,11,01,20.80
2017,06,20,11,02,20.80
2017,06,20,11,03,20.80
2017,06,20,11,04,20.80
2017,06,20,11,05,20.80
2017,06,20,11,06,20.80
2017,06,20,11,07,20.90
2017,06,20,11,08,20.90
2017,06,20,11,09,20.90
2017,06,20,11,10,21.00
2017,06,20,11,11,21.10
2017,06,20,11,12,21.20
2017,06,20,11,13,21.30
2017,06,20,11,14,21.40
2017,06,20,11,15,21.50
2017,06,20,11,16,21.60
2017,06,20,11,17,21.70
2017,06,20,11,18,21.70
2017,06,20,11,19,21.70
2017,06,20,11,20,21.70
2017,06,20,11,21,21.70
2017,06,20,11,22,21.60
2017,06,20,11,23,21.60
2017,06,20,11,24,21.60
2017,06,20,11,25,21.60
2017,06,20,11,26,21.60
2017,06,20,11,27,21.70
2017,06,20,11,28,21.70
2017,06,20,11,29,21.70
2017,06,20,11,30,21.80
2017,06,20,11,31,21.90
2017,06,20,11,32,21.90
2017,06,20,11,33,22.00
2017,06,20,11,34,22.00
2017,06,20,11,35,22.10
2017,06,20,11,36,22.20
2017,06,20,11,37,22.20
2017,06,20,11,38,22.30
2017,06,20,11,39,22.40
2017,06,20,11,40,22.50
2017,06,20,11,41,22.60
2017,06,20,11,42,22.70
2017,06,20,11,43,22.80
2017,06,20,11,44,22.80
2017,06,20,11,45,22.90
2017,06,20,11,46,22.90
2017,06,20,11,47,22.80
2017,06,20,11,48,22.80
2017,06,20,11,49,22.80
2017,06,20,11,50,22.60
2017,06,20,11,51,22.60
2017,06,20,11,52,22.50
2017,06,20,11,53,22.50
2017,06,20,11,54,22.40
2017,06,20,11,55,22.30
2017,06,20,11,56,22.20
2017,06,20,11,57,22.10
2017,06,20,11,58,22.10
2017,06,20,11,59,22.10
2017,06,20,12,00,22.10
2017,06,20,12,01,22.10
2017,06,20,12,02,22.10
2017,06,20,12,03,22.10
2017,06,20,12,04,22.10
2017,06,20,12,05,22.10
2017,06,20,12,06,22.10
2017,06,20,12,07,22.00
2017,06,20,12,08,21.90
2017,06,20,12,09,21.90
2017,06,20,12,10,21.90
2017,06,20,12,11,21.80
2017,06,20,12,12,21.80
2017,06,20,12,13,21.70
2017,06,20,12,14,21.60
2017,06,20,12,15,21.60
2017,06,20,12,16,21.60
2017,06,20,12,17,21.60
2017,06,20,12,18,21.60
2017,06,20,12,19,21.60
2017,06,20,12,20,21.70
2017,06,20,12,21,21.70
2017,06,20,12,22,21.70
2017,06,20,12,23,21.70
2017,06,20,12,24,21.80
2017,06,20,12,25,21.80
2017,06,20,12,26,21.80
2017,06,20,12,27,21.80
2017,06,20,12,28,21.80
2017,06,20,12,29,21.80
2017,06,20,12,30,21.80
2017,06,20,12,31,21.80
2017,06,20,12,32,21.80
2017,06,20,12,33,21.70
2017,06,20,12,34,21.70
2017,06,20,12,35,21.70
2017,06,20,12,36,21.70
2017,06,20,12,37,21.70
2017,06,20,12,38,21.80
2017,06,20,12,39,21.90
2017,06,20,12,40,22.00
2017,06,20,12,41,22.10
2017,06,20,12,42,22.10
2017,06,20,12,43,22.20
2017,06,20,12,44,22.20
2017,06,20,12,45,22.20
2017,06,20,12,46,22.30
2017,06,20,12,47,22.30
2017,06,20,12,48,22.30
2017,06,20,12,49,22.30
2017,06,20,12,50,22.30
2017,06,20,12,51,22.40
2017,06,20,12,52,22.40
2017,06,20,12,53,22.50
2017,06,20,12,54,22.50
2017,06,20,12,55,22.40
2017,06,20,12,56,22.30
2017,06,20,12,57,22.30
2017,06,20,12,58,22.20
2017,06,20,12,59,22.10
2017,06,20,13,00,22.00
2017,06,20,13,01,22.00
2017,06,20,13,02,21.90
2017,06,20,13,03,21.80
2017,06,20,13,04,21.80
2017,06,20,13,05,21.80
2017,06,20,13,06,21.80
2017,06,20,13,07,21.70
2017,06,20,13,08,21.60
2017,06,20,13,09,21.60
2017,06,20,13,10,21.50
2017,06,20,13,11,21.40
2017,06,20,13,12,21.40
2017,06,20,13,13,21.50
2017,06,20,13,14,21.50
2017,06,20,13,15,21.50
2017,06,20,13,16,21.60
2017,06,20,13,17,21.60
2017,06,20,13,18,21.60
2017,06,20,13,19,21.60
2017,06,20,13,20,21.60
2017,06,20,13,21,21.60
2017,06,20,13,22,21.70
2017,06,20,13,23,21.70
2017,06,20,13,24,21.50
2017,06,20,13,25,21.40
2017,06,20,13,26,21.30
2017,06,20,13,27,21.20
2017,06,20,13,28,21.00
2017,06,20,13,29,20.90
2017,06,20,13,30,20.80
2017,06,20,13,31,20.80
2017,06,20,13,32,20.80
2017,06,20,13,33,20.80
2017,06,20,13,34,20.80
2017,06,20,13,35,20.80
2017,06,20,13,36,20.80
2017,06,20,13,37,20.80
2017,06,20,13,38,20.80
2017,06,20,13,39,20.80
2017,06,20,13,40,20.70
2017,06,20,13,41,20.60
2017,06,20,13,42,20.60
2017,06,20,13,43,20.60
2017,06,20,13,44,20.50
2017,06,20,13,45,20.40
2017,06,20,13,46,20.20
2017,06,20,13,47,20.20
2017,06,20,13,48,20.10
2017,06,20,13,49,19.90
2017,06,20,13,50,19.80
2017,06,20,13,51,19.70
2017,06,20,13,52,19.80
2017,06,20,13,53,19.80
2017,06,20,13,54,19.80
2017,06,20,13,55,19.80
2017,06,20,13,56,19.80
2017,06,20,13,57,19.90
2017,06,20,13,58,20.00
2017,06,20,13,59,20.10
2017,06,20,14,00,20.20
2017,06,20,14,01,20.20
2017,06,20,14,02,20.30
2017,06,20,14,03,20.30
2017,06,20,14,04,20.20
2017,06,20,14,05,20.20
2017,06,20,14,06,20.30
2017,06,20,14,07,20.40
2017,06,20,14,08,20.50
2017,06,20,14,09,20.60
2017,06,20,14,10,20.70
2017,06,20,14,11,20.70
2017,06,20,14,12,20.80
2017,06,20,14,13,21.00
2017,06,20,14,14,21.10
2017,06,20,14,15,21.20
2017,06,20,14,16,21.40
2017,06,20,14,17,21.50
2017,06,20,14,18,21.60
2017,06,20,14,19,21.60
2017,06,20,14,20,21.70
2017,06,20,14,21,21.90
2017,06,20,14,22,22.00
2017,06,20,14,23,22.00
2017,06,20,14,24,22.10
2017,06,20,14,25,22.10
2017,06,20,14,26,22.10
2017,06,20,14,27,22.10
2017,06,20,14,28,22.00
2017,06,20,14,29,21.90
2017,06,20,14,30,21.80
2017,06,20,14,31,21.80
2017,06,20,14,32,21.70
2017,06,20,14,33,21.60
2017,06,20,14,34,21.60
2017,06,20,14,35,21.60
2017,06,20,14,36,21.60
2017,06,20,14,37,21.60
2017,06,20,14,38,21.50
2017,06,20,14,39,21.50
2017,06,20,14,40,21.40
2017,06,20,14,41,21.30
2017,06,20,14,42,21.30
2017,06,20,14,43,21.30
2017,06,20,14,44,21.30
2017,06,20,14,45,21.30
2017,06,20,14,46,21.30
2017,06,20,14,47,21.30
2017,06,20,14,48,21.20
2017,06,20,14,49,21.20
2017,06,20,14,50,21.20
2017,06,20,14,51,21.30
2017,06,20,14,52,21.30
2017,06,20,14,53,21.40
2017,06,20,14,54,21.40
2017,06,20,14,55,21.60
2017,06,20,14,56,21.60
2017,06,20,14,57,21.70
2017,06,20,14,58,21.80
2017,06,20,14,59,21.80
2017,06,20,15,00,21.90
2017,06,20,15,01,21.90
2017,06,20,15,02,21.80
2017,06,20,15,03,21.70
2017,06,20,15,04,21.70
2017,06,20,15,05,21.70
2017,06,20,15,06,21.80
2017,06,20,15,07,21.80
2017,06,20,15,08,21.90
2017,06,20,15,09,21.80
2017,06,20,15,10,21.70
2017,06,20,15,11,21.70
2017,06,20,15,12,21.80
2017,06,20,15,13,21.80
2017,06,20,15,14,21.80
2017,06,20,15,15,21.80
2017,06,20,15,16,21.90
2017,06,20,15,17,22.10
2017,06,20,15,18,22.20
2017,06,20,15,19,22.20
2017,06,20,15,20,22.30
2017,06,20,15,21,22.40
2017,06,20,15,22,22.40
2017,06,20,15,23,22.30
2017,06,20,15,24,22.20
2017,06,20,15,25,22.10
2017,06,20,15,26,22.00
2017,06,20,15,27,21.90
2017,06,20,15,28,21.80
2017,06,20,15,29,21.70
2017,06,20,15,30,21.60
2017,06,20,15,31,21.60
2017,06,20,15,32,21.70
2017,06,20,15,33,21.80
2017,06,20,15,34,21.90
2017,06,20,15,35,21.90
2017,06,20,15,36,21.90
2017,06,20,15,37,21.90
2017,06,20,15,38,21.80
2017,06,20,15,39,21.80
2017,06,20,15,40,21.80
2017,06,20,15,41,21.80
2017,06,20,15,42,21.80
2017,06,20,15,43,21.80
2017,06,20,15,44,21.80
2017,06,20,15,45,21.90
2017,06,20,15,46,21.90
2017,06,20,15,47,22.00
2017,06,20,15,48,22.00
2017,06,20,15,49,21.90
2017,06,20,15,50,21.90
2017,06,20,15,51,21.80
2017,06,20,15,52,21.80
2017,06,20,15,53,21.70
2017,06,20,15,54,21.70
2017,06,20,15,55,21.60
2017,06,20,15,56,21.60
2017,06,20,15,57,21.60
2017,06,20,15,58,21.60
2017,06,20,15,59,21.50
2017,06,20,16,00,21.60
2017,06,20,16,01,21.60
2017,06,20,16,02,21.60
2017,06,20,16,03,21.60
2017,06,20,16,04,21.70
2017,06,20,16,05,21.80
2017,06,20,16,06,21.90
2017,06,20,16,07,22.00
2017,06,20,16,08,22.00
2017,06,20,16,09,22.10
2017,06,20,16,10,22.10
2017,06,20,16,11,21.90
2017,06,20,16,12,21.80
2017,06,20,16,13,21.70
2017,06,20,16,14,21.50
2017,06,20,16,15,21.40
2017,06,20,16,16,21.30
2017,06,20,16,17,21.30
2017,06,20,16,18,21.30
2017,06,20,16,19,21.30
2017,06,20,16,20,21.30
2017,06,20,16,21,21.30
2017,06,20,16,22,21.20
2017,06,20,16,23,21.20
2017,06,20,16,24,21.10
2017,06,20,16,25,21.10
2017,06,20,16,26,21.00
2017,06,20,16,27,20.90
2017,06,20,16,28,20.90
2017,06,20,16,29,20.90
2017,06,20,16,30,20.90
2017,06,20,16,31,20.80
2017,06,20,16,32,20.80
2017,06,20,16,33,20.80
2017,06,20,16,34,20.90
2017,06,20,16,35,20.90
2017,06,20,16,36,21.00
2017,06,20,16,37,21.10
2017,06,20,16,38,21.20
2017,06,20,16,39,21.40
2017,06,20,16,40,21.40
2017,06,20,16,41,21.30
2017,06,20,16,42,21.30
2017,06,20,16,43,21.30
2017,06,20,16,44,21.40
2017,06,20,16,45,21.40
2017,06,20,16,46,21.50
2017,06,20,16,47,21.50
2017,06,20,16,48,21.50
2017,06,20,16,49,21.40
2017,06,20,16,50,21.30
2017,06,20,16,51,21.30
2017,06,20,16,52,21.20
2017,06,20,16,53,21.20
2017,06,20,16,54,21.20
2017,06,20,16,55,21.20
2017,06,20,16,56,21.30
2017,06,20,16,57,21.20
2017,06,20,16,58,21.20
2017,06,20,16,59,21.10
2017,06,20,17,00,21.10
2017,06,20,17,01,21.10
2017,06,20,17,02,21.10
2017,06,20,17,03,21.20
2017,06,20,17,04,21.20
2017,06,20,17,05,21.20
2017,06,20,17,06,21.30
2017,06,20,17,07,21.30
2017,06,20,17,08,21.30
2017,06,20,17,09,21.20
2017,06,20,17,10,21.20
2017,06,20,17,11,21.20
2017,06,20,17,12,21.10
2017,06,20,17,13,21.00
2017,06,20,17,14,20.90
2017,06,20,17,15,20.90
2017,06,20,17,16,20.80
2017,06,20,17,17,20.90
2017,06,20,17,18,20.90
2017,06,20,17,19,20.90